FENGYUN 1C DEB

Satellite information

Favourite Embed

Satellite Type and Status

DEBRISIN ORBIT

Key statistics

Satellite FENGYUN 1C DEB at a glance.

Uptime

9498

Days in orbit

Revolutions

≈ 14.7

Per day

Orbit

SSO

Sun Synchronous Orbit

Inclination

98.9

Latest

Satellite identification and parameters

Extended collection of information and parameters for FENGYUN 1C DEB.

Object identification

Identified? True

Debris? True

Object name: FENGYUN 1C DEB

International designator: 1999-025RK

Object number (NORAD): 30106

Object ID (CCSDS): 30106

Country: PEOPLES REPUBLIC OF CHINA (PRC)

Current information (Y/N): Y

RCS size: SMALL

Orbital parameters

Period: 97.875 minutes

Inclination: 98.9374 deg

SMA: 7035.164 km

Apoapsis: 703.665 km

Periapsis: 610.393 km

RAAN: 14.9897 deg

Eccentricy: 0.006629

Argument of periapsis: 155.5971 deg

Mean anomaly: 324.606 deg

Mean motion: 14.71266821 rev/day

Mean motion (dot): 0.00023268 rev/day2

B* drag term: 0.0036409 1/REarth

Two-line elements (TLE)

Creation date: May 10, 2025, 5:27 p.m.

Reference frame: TEME

Reference center: EARTH

Epoch: May 10, 2025, 6:34 a.m. UTC

TLE line 0: 0 FENGYUN 1C DEB

TLE line 1: 1 30106U 99025RK 25130.27406947 .00023268 00000-0 36409-2 0 9990

TLE line 2: 2 30106 98.9374 14.9897 0066290 155.5971 324.6060 14.71266821953518

Live tracking on map

Real-time ground track for satellite FENGYUN 1C DEB.

In-orbit conjunctions

A list of the most updated potential collisions computed for object FENGYUN 1C DEB.

Target Orbit TCA Probability of collision Miss distance Type
THOR ABLESTAR DEB LEO 2024-09-26 20:10:58 0.0001033798 714.0 (m) DEBRIS
DELTA 1 DEB SSO 2024-06-27 12:39:47 0.0001092166 208.0 (m) DEBRIS
SL-8 R/B LEO 2024-06-01 04:00:56 0.0003868231 114.0 (m) ROCKET BODY

Associated space launch

Chinese polar orbiting meteorological satellite

FENGYUN 1C DEB was lifted into orbit during the mission ‘Long March 4B | Feng Yun 1C’, on board a Long March 4B space rocket.

The launch took place on May 10, 1999, 1:33 a.m. from Launch Complex 7.

For more information about the launch, click the button.

Launch to space Long March 4B | Feng Yun 1C
Long March 4B | Feng Yun 1C

Agency: N/A

Status: Launch Successful

Launch date: May 10, 1999, 1:33 a.m. UTC

Rocket: Long March 4B

Launch pad: Launch Complex 7

Location: Taiyuan Satellite Launch Center, People's Republic of China

...

Latest news about this satellite

There are no fresh news available about this satellite. Check back as we update our databases every day.


Newsletter sign-up

Weekly statistics, charts and insights to help you stay on top of the space industry.